User: anonymous   Login
Location: Fort Wayne
(41.1310°N, 85.1290°W)
Time: 12:57:45
(UTC-04:00)
Language:

Cosmos 2082 - Orbit

View from above orbital plane
View from above orbital plane
View from above satellite
View from above satellite

Ground track
Ground track

The orbit data is extracted from the following two-line orbital elements,

1 20624U 90046A   17142.87510043 +.00000244 +00000-0 +15263-3 0  9996
2 20624 071.0415 267.5441 0013262 062.6376 297.6094 14.14226479393391
Epoch (UTC): 22 May 2017 21:00:08
Eccentricity: 0.0013262
inclination: 71.0415°
perigee height: 835 km
apogee height: 854 km
right ascension of ascending node: 267.5441°
argument of perigee: 62.6376°
revolutions per day: 14.14226479
mean anomaly at epoch: 297.6094°
orbit number at epoch: 39339

The dashed part of the orbit path shows where the satellite is in the earth's shadow,  

DLR